Regional Weather Roundup
Issued by NWS

Home | Current Version | Previous Version | Graphics & Text | Print | Product List | Glossary On
Versions: 1 2 3 4 5 6 7 8 9 10 11 12 13 14 15 16 17 18 19 20 21 22 23 24 25 26 27 28 29 30 31 32 33 34 35 36 37 38 39 40 41 42 43 44 45 46 47 48 49
000
ASUS45 KBOU 261707
RWRCO

WEATHER ROUNDUP FOR COLORADO
NATIONAL WEATHER SERVICE DENVER/BOULDER CO
1100 AM MDT TUE MAY 26 2015

NOTE: "FAIR" INDICATES FEW OR NO CLOUDS BELOW 12000 FEET WITH NO
SIGNIFICANT WEATHER AND/OR OBSTRUCTIONS TO VISIBILITY.

COZ001>005-013-030-031-261800-
...NORTHWEST COLORADO...

CITY           SKY/WX    TMP DP  RH WIND       PRES   REMARKS
CRAIG          MOSUNNY   60  45  57 N7        30.11F
HAYDEN         MOSUNNY   54  37  54 N3        30.12F
MEEKER         MOSUNNY   62  44  51 VRB7      30.10F
MOUNT WERNER   NOT AVBL
STEAMBOAT SPGS PTSUNNY   53  40  60 W3        30.13F
WALDEN         CLOUDY    52  36  54 SW7       30.15F
$$

COZ006>008-011-261800-
...WEST CENTRAL VALLEYS...

CITY           SKY/WX    TMP DP  RH WIND       PRES   REMARKS
GRAND JUNCTION CLOUDY    63  45  51 SE3       30.06F
MONTROSE       PTSUNNY   64  43  46 NW7       30.12S
EAGLE          PTSUNNY   52  45  76 VRB7      30.18S
RIFLE          MOSUNNY   59  47  64 E3        30.10F
DELTA          PTSUNNY   67  43  41 MISG      30.09F
NUCLA          PTSUNNY   61  41  48 CALM      30.15F
$$

COZ017>023-064>068-261800-
...SOUTHWEST COLORADO...

CITY           SKY/WX    TMP DP  RH WIND       PRES   REMARKS
DURANGO        MOSUNNY   59  42  53 VRB5      30.18S
CORTEZ         SUNNY     63  45  51 SW6       30.14F
PAGOSA SPRINGS MOSUNNY   55  35  48 SW3       30.22S
TELLURIDE      LGT RAIN  46  37  70 E6        30.28R
WOLF CREEK PAS NOT AVBL
$$

COZ009-010-012-014-032>034-037-058>063-261800-
...CENTRAL COLORADO...

CITY           SKY/WX    TMP DP  RH WIND       PRES   REMARKS
ASPEN          PTSUNNY   53  41  63 N6        30.18S
BUENA VISTA    MOSUNNY   57  31  38 E3        30.16F
COPPER MTN     LGT SNOW  34  32  93 W20       30.33S VSB 3/4 WCI  22
BERTHOUD PASS  PTSUNNY   27  19  74 NW25G32   30.33R WCI  11
COTTONWOOD PAS PTSUNNY   55  27  33 CALM      30.25S
GUNNISON       MOSUNNY   54  37  54 CALM      30.22S
KREMMLING      CLOUDY    54  39  58 CALM      30.17S
LEADVILLE      CLOUDY    43  33  68 N10       30.25R
MONARCH PASS     N/A     32  30  93 W28       30.43R WCI  18
SALIDA         MOSUNNY   60  31  33 SW7       30.22S
SUNLIGHT       CLOUDY    41  37  87 CALM      30.33S
WILKERSON PASS MOSUNNY   43  28  56 SW3       30.33R
$$

COZ069>075-261800-
...SAN LUIS VALLEY/SANGRE DE CRISTO MOUNTAINS...

CITY           SKY/WX    TMP DP  RH WIND       PRES   REMARKS
ALAMOSA        SUNNY     57  32  38 CALM      30.19S
LA VETA PASS   MOSUNNY  N/A N/A N/A MISG      30.29R
SAGUACHE       PTSUNNY   54  36  50 S9        30.19F
$$

COZ035-036-038>040-261800-
...NORTHERN COLORADO FRONT RANGE...

CITY           SKY/WX    TMP DP  RH WIND       PRES   REMARKS
DENVER INTL AP MOSUNNY   63  44  50 SE8       30.06S
DMNS CITY PARK   N/A     67  42  41 SW2       30.05S
AURORA         NOT AVBL
FRONT RANGE AP MOSUNNY   64  45  48 CALM      30.07F
ERIE MUNI ARPT   N/A     64  42  45 S3        30.04F
BOULDER MUN AP MOSUNNY   63  46  55 E5        30.04F
CENTENNIAL     MOSUNNY   62  38  40 CALM      30.07S
BROOMFIELD     MOSUNNY   63  45  51 SE7       30.07S
FORT COLLINS   MOSUNNY   61  48  63 S6        30.06F
LONGMONT       PTSUNNY   66  48  51 SE5       30.06S
$$

COZ041-046-047-076>085-087-088-261800-
...PIKES PEAK/PALMER DIVIDE AND SOUTHERN FOOTHILLS...

CITY           SKY/WX    TMP DP  RH WIND       PRES   REMARKS
COLO. SPRINGS  PTSUNNY   59  43  55 SE12      30.11S
A. F. ACADEMY  NOT AVBL
ELLICOTT         N/A      1  32 100 SE8       30.10  WCI -13
FALCON         MOSUNNY   59  40  48 SE6       30.15R
FORT CARSON    NOT AVBL
LIMON          CLOUDY    59  44  57 CALM      30.09S
MONUMENT HILL  NOT AVBL
TRINIDAD       SUNNY     62  47  57 E7        30.10R
$$

COZ042>045-048>051-090-091-261800-
...NORTHEAST COLORADO...

CITY           SKY/WX    TMP DP  RH WIND       PRES   REMARKS
GREELEY ARPT   MOSUNNY   64  48  55 CALM      30.05S
AKRON          MOSUNNY   62  49  62 VRB3      30.05S
BURLINGTON     SUNNY     66  49  54 NW9       30.04S
WRAY           PTSUNNY   66  50  56 NW8       30.03S
STERLING       MOSUNNY   63  50  63 N6        30.02S
HOLYOKE        NOT AVBL
FORT MORGAN    PTSUNNY   63  48  58 SW6       30.06S
$$

COZ086-089-092>099-261800-
...SOUTHEAST COLORADO...

CITY           SKY/WX    TMP DP  RH WIND       PRES   REMARKS
PUEBLO         MOSUNNY   63  47  55 VRB3      30.06S
LA JUNTA       SUNNY     67  48  50 SW8       30.06S
LAMAR          SUNNY     67  49  52 NW6       30.03R
SPRINGFIELD      N/A     66  46  48 CALM      30.05S
$$


USA.gov is the U.S. government's official web portal to all federal, state and local government web resources and services.